DateTimeUTC,F1_A11,F1_S11,BsB_S11,BsG_S11,BsR_S11,BbsB_S11,BbsG_S11,BbsR_S11,BaB_A11,BaG_A11,BaR_A11,Tu_S11,T_S11,Uu_S11,U_S11,P_S11,T1_A11
2021-02-18T19:00:00Z,00000200,21000000,,,,,,,0000.09,0000.27,0000.26,18.0,24.0,,00.0,0628.1,31.1
2021-02-18T19:01:00Z,00000200,21000000,,,,,,,0000.06,-000.14,-000.26,18.0,24.0,,00.0,0628.1,31.1
2021-02-18T19:02:00Z,00000200,21000000,,,,,,,-000.21,0000.22,-000.11,18.0,24.1,,00.0,0628.1,31.1
2021-02-18T19:03:00Z,00000200,61000000,,,,,,,0000.17,-000.20,0000.12,18.0,24.1,,00.0,0628.1,31.1
2021-02-18T19:04:00Z,00000200,41000000,-000.01,-000.04,0000.08,0000.31,0000.04,0000.18,0000.06,0000.53,0000.55,18.5,24.1,00.2,00.2,0629.0,31.1
2021-02-18T19:05:00Z,00000200,01000000,-000.11,-000.31,0000.18,-000.28,0000.16,-000.34,0000.22,-000.49,-000.98,18.6,24.2,00.2,00.2,0629.1,31.1
2021-02-18T19:06:00Z,00000200,01000000,-000.16,-000.33,-000.28,0000.38,-000.06,-000.21,-000.02,0000.44,0000.49,18.6,24.2,00.2,00.2,0629.0,31.1
2021-02-18T19:07:00Z,00000200,01000000,0000.30,-000.01,-000.05,-000.12,0000.02,0000.10,-000.09,-000.00,0000.09,18.6,24.2,00.2,00.2,0629.0,31.1
2021-02-18T19:08:00Z,00000200,01000000,0000.07,-000.28,-000.33,-000.37,0000.14,-000.14,-000.13,-000.08,0000.01,18.6,24.2,00.2,00.2,0629.1,31.1
2021-02-18T19:09:00Z,00000200,01000000,0000.28,-000.03,0000.03,0000.20,0000.22,-000.06,-000.03,-000.16,-000.06,18.5,24.2,00.3,00.2,0629.0,31.1
2021-02-18T19:10:00Z,00000200,01000000,-000.66,0000.11,-000.06,-000.23,0000.14,-000.17,-000.01,-000.33,-000.06,18.5,24.2,00.2,00.2,0629.1,31.1
2021-02-18T19:11:00Z,00000200,01000000,-000.24,0000.01,0000.20,-000.38,0000.00,0000.09,0000.01,0000.14,-000.15,18.4,24.2,00.2,00.2,0628.9,31.1
2021-02-18T19:12:00Z,00000200,01000000,-000.05,0000.20,0000.05,0000.03,0000.24,-000.17,0000.35,0000.10,0000.19,18.3,24.1,00.3,00.2,0629.0,31.1
2021-02-18T19:13:00Z,00000200,01000000,-000.42,-000.04,0000.13,0000.38,0000.29,0000.13,-000.01,0000.14,0000.05,18.3,24.1,00.3,00.2,0629.0,31.1
2021-02-18T19:14:00Z,00000200,01000000,0000.07,-000.01,0000.03,-000.17,0000.21,-000.04,-000.09,-000.18,-000.04,18.2,24.1,00.2,00.2,0628.9,31.1
2021-02-18T19:15:00Z,00000200,01000000,-000.14,-000.00,0000.12,0000.67,0000.15,0000.08,0000.09,0000.24,0000.08,18.2,24.1,00.3,00.2,0629.0,31.0
2021-02-18T19:16:00Z,00000200,01000000,0000.02,0000.02,-000.32,0000.51,0000.23,0000.13,0000.09,0000.02,-000.13,18.1,24.0,00.3,00.2,0628.9,31.1
2021-02-18T19:17:00Z,00000200,01000000,-000.41,-000.27,-000.28,-000.15,-000.07,-000.26,-000.27,0000.50,-000.13,18.1,24.0,00.3,00.2,0629.0,31.1
2021-02-18T19:18:00Z,00000200,01000000,-000.60,0000.16,-000.20,0000.18,-000.13,0000.09,0000.13,-000.55,-000.41,18.1,24.0,00.3,00.2,0628.9,31.1
2021-02-18T19:19:00Z,00000200,01000000,-000.01,-000.01,-000.07,-000.11,-000.14,0000.18,0000.14,0000.17,0000.73,18.0,24.0,00.3,00.2,0628.9,31.0
2021-02-18T19:20:00Z,00000200,01000000,0000.07,0000.19,-000.05,-000.38,-000.06,0000.22,0000.04,-000.36,-000.04,18.0,23.9,00.3,00.2,0629.0,31.0
2021-02-18T19:21:00Z,00000200,01000000,-000.02,0000.03,-000.12,0000.16,0000.15,0000.26,0000.02,0000.45,0000.03,17.9,23.9,00.3,00.2,0629.0,31.0
2021-02-18T19:22:00Z,00000200,01000000,-000.54,-000.04,-000.14,-000.21,0000.25,-000.14,-000.14,-000.54,-000.31,17.9,23.9,00.3,00.2,0629.1,31.0
2021-02-18T19:23:00Z,00000200,01000000,0000.15,-000.15,0000.30,-000.20,0000.06,0000.08,0000.15,0000.23,0000.06,17.9,23.9,00.3,00.2,0629.1,31.0
2021-02-18T19:24:00Z,00000200,01000000,-000.45,-000.08,-000.45,0000.36,0000.01,0000.06,0000.03,-000.28,-000.12,17.8,23.8,00.3,00.2,0629.1,31.0
2021-02-18T19:25:00Z,00000200,01000000,0000.90,-000.15,0000.07,0000.31,-000.06,-000.01,-000.15,0000.09,0000.32,17.8,23.8,00.3,00.2,0629.1,31.0
2021-02-18T19:26:00Z,00000200,01000000,-000.07,-000.10,0000.00,0000.34,0000.21,0000.01,0000.07,0000.35,0000.06,17.8,23.8,00.3,00.2,0629.1,31.0
2021-02-18T19:27:00Z,00000200,01000000,0000.01,0000.20,-000.25,0000.23,0000.06,-000.09,0000.28,0000.04,-000.04,17.7,23.8,00.2,00.2,0629.0,31.0
2021-02-18T19:28:00Z,00000200,01000000,-000.77,-000.07,-000.29,0000.18,0000.09,-000.06,-000.27,-000.16,0000.09,17.7,23.7,00.3,00.2,0629.0,31.0
2021-02-18T19:29:00Z,00000200,01000000,-000.08,0000.15,-000.05,0000.13,0000.05,-000.01,0000.12,-000.17,-000.13,17.7,23.7,00.4,00.2,0629.0,31.0
2021-02-18T19:30:00Z,00000200,01000000,-000.14,0000.34,-000.04,-000.06,0000.09,-000.05,-000.22,0000.18,-000.41,17.6,23.7,00.3,00.2,0628.9,31.0
2021-02-18T19:31:00Z,00000200,01000000,-000.37,0000.06,-000.29,0000.38,0000.08,-000.27,0000.36,-000.13,0000.32,17.6,23.7,00.4,00.3,0628.9,31.0
2021-02-18T19:32:00Z,00000200,01000000,-000.51,-000.27,-000.19,0000.52,0000.15,-000.14,-000.12,0000.03,0000.16,17.6,23.6,00.4,00.3,0628.7,31.0
2021-02-18T19:33:00Z,00000200,01000000,-000.51,0000.27,-000.00,0000.41,-000.05,-000.16,-000.34,0000.20,-000.15,17.5,23.6,00.4,00.3,0628.9,31.0
2021-02-18T19:34:00Z,00000200,01000000,-000.42,-000.13,-000.15,-000.02,0000.21,-000.22,0000.33,-000.09,0000.00,17.5,23.6,00.4,00.3,0628.9,31.0
2021-02-18T19:35:00Z,00000200,01000000,-000.65,0000.00,-000.24,0000.04,0000.02,-000.29,0000.29,0000.07,0000.03,17.5,23.6,00.4,00.3,0628.9,31.0
2021-02-18T19:36:00Z,00000200,01000000,-000.44,-000.06,-000.15,-000.49,-000.05,0000.04,0000.19,0000.09,0000.30,17.5,23.5,00.4,00.3,0628.9,31.0
2021-02-18T19:37:00Z,00000200,01000000,0000.09,-000.11,-000.14,-000.22,-000.07,-000.10,-000.25,0000.10,0000.11,17.5,23.6,00.5,00.3,0628.8,31.0
2021-02-18T19:38:00Z,00000200,01000000,-000.69,-000.45,-000.04,0000.18,0000.22,-000.19,0000.34,0000.29,0000.18,17.6,23.6,00.5,00.3,0628.8,31.0
2021-02-18T19:39:00Z,00000200,01000000,-000.89,0000.12,-000.09,0000.10,0000.33,0000.02,-000.18,-000.02,-000.04,17.7,23.6,00.4,00.3,0628.8,31.0
2021-02-18T19:40:00Z,00000200,01000000,-000.48,-000.08,0000.16,0000.16,-000.10,-000.09,-000.15,-000.12,-000.42,17.7,23.6,00.4,00.3,0629.0,31.0
2021-02-18T19:41:00Z,00000200,01000000,-000.07,-000.10,0000.04,0000.12,0000.27,0000.27,-000.26,-000.11,0000.24,17.7,23.6,00.4,00.3,0628.9,31.0
2021-02-18T19:42:00Z,00000200,01000000,0000.31,0000.19,0000.02,-000.24,0000.29,-000.17,0000.24,-000.16,-000.09,17.7,23.6,00.5,00.3,0628.9,31.0
2021-02-18T19:43:00Z,00000200,01000000,0000.15,0000.08,-000.21,0000.04,0000.04,0000.05,0000.24,0000.20,0000.13,17.6,23.6,00.4,00.3,0628.8,31.0
2021-02-18T19:44:00Z,00000200,01000000,0000.20,-000.01,0000.10,0000.18,0000.05,0000.01,-000.00,0000.01,-000.23,17.6,23.6,00.4,00.3,0628.9,31.0
2021-02-18T19:45:00Z,00000200,01000000,0000.16,-000.29,-000.22,0000.21,0000.23,-000.20,-000.20,0000.15,0000.15,17.6,23.6,00.5,00.4,0628.8,31.0
2021-02-18T19:46:00Z,00000200,01000000,-000.48,-000.06,-000.19,0000.26,0000.16,0000.15,0000.18,-000.02,-000.07,17.5,23.5,00.4,00.3,0628.8,31.0
2021-02-18T19:47:00Z,00000200,01000000,-000.30,0000.06,-000.46,0000.12,0000.12,-000.26,-000.07,-000.09,-000.19,17.5,23.5,00.4,00.3,0628.9,31.0
2021-02-18T19:48:00Z,00000200,01000000,0000.22,0000.24,-000.28,0000.19,-000.09,-000.04,-000.16,-000.16,0000.07,17.4,23.5,00.4,00.3,0629.0,31.0
2021-02-18T19:49:00Z,00000200,01000000,0000.21,0000.17,0000.07,0000.34,0000.27,-000.05,0000.64,0000.35,0000.47,17.4,23.5,00.4,00.3,0628.9,31.0
2021-02-18T19:50:00Z,00000200,01000000,0000.13,-000.30,0000.08,0000.01,0000.08,0000.23,0000.00,0000.28,-000.32,17.4,23.4,00.5,00.4,0629.0,31.0
2021-02-18T19:51:00Z,00000200,01000000,0000.02,0000.15,-000.21,-000.31,-000.01,0000.16,-000.03,0000.17,0000.07,17.4,23.4,00.5,00.4,0629.0,31.0
2021-02-18T19:52:00Z,00000200,01000000,0000.27,-000.21,0000.24,-000.09,0000.07,-000.08,-000.17,-000.11,0000.22,17.5,23.4,00.5,00.4,0628.9,31.0
2021-02-18T19:53:00Z,00000200,01000000,-000.59,-000.02,-000.11,-000.32,0000.30,-000.04,0000.64,0000.15,0000.23,17.5,23.5,00.5,00.4,0628.9,31.0
2021-02-18T19:54:00Z,00000200,01000000,-000.35,-000.06,-000.08,0000.32,0000.26,-000.18,0000.03,0000.29,0000.11,17.6,23.5,00.5,00.4,0628.9,31.1
2021-02-18T19:55:00Z,00000200,01000000,0000.08,0000.08,-000.26,0000.41,0000.18,0000.28,-000.16,-000.18,0000.42,17.7,23.6,00.5,00.4,0628.9,31.1
2021-02-18T19:56:00Z,00000200,01000000,-000.01,-000.02,-000.13,-000.20,0000.14,0000.24,0000.36,0000.16,-000.40,17.8,23.6,00.5,00.3,0628.9,31.1
2021-02-18T19:57:00Z,00000200,41000000,,,,,,,-000.47,-000.17,0000.04,17.9,23.7,00.3,00.2,0628.8,31.1
2021-02-18T19:58:00Z,00000200,61000000,,,,,,,-000.01,0000.03,0000.00,17.7,23.8,00.3,00.2,0628.1,31.1
2021-02-18T19:59:00Z,00000200,21000000,,,,,,,0000.19,-000.44,0000.17,17.8,23.9,00.2,00.2,0628.1,31.1
